| time (UTC) | temp C | wind direction | speed KPH | gust KPH | rain 1hr cm | rain 24hr cm | rain mn cm | humidity % | barometer mb |
| 20260504141200 | 16 | 90 | 3.2 | 9.7 | 0.00 | 0.00 | 0.00 | 47 | 1013.8 |
| 20260504140700 | 16 | 90 | 1.6 | 9.7 | 0.00 | 0.00 | 0.00 | 46 | 1013.9 |
| 20260504140201 | 16 | 90 | 1.6 | 9.7 | 0.00 | 0.00 | 0.00 | 47 | 1013.9 |
| 20260504130700 | 12 | 67 | 0.0 | 6.4 | 0.00 | 0.00 | 0.00 | 60 | 1014.4 |
| 20260504130200 | 12 | 67 | 0.0 | 4.8 | 0.00 | 0.00 | 0.00 | 62 | 1014.5 |
| 20260504120200 | 8 | 90 | 1.6 | 3.2 | 0.00 | 0.00 | 0.00 | 76 | 1014.8 |
| 20260504110702 | 6 | 45 | 0.0 | 0.0 | 0.00 | 0.00 | 0.00 | 92 | 1015.0 |
| 20260504110202 | 5 | 45 | 0.0 | 0.0 | 0.00 | 0.00 | 0.00 | 92 | 1015.0 |
| 20260504100201 | 6 | 45 | 0.0 | 0.0 | 0.00 | 0.00 | 0.00 | 89 | 1014.9 |
| 20260504081700 | 6 | 45 | 0.0 | 0.0 | 0.00 | 0.00 | 0.00 | 90 | 1015.2 |
| 20260504081202 | 6 | 45 | 0.0 | 0.0 | 0.00 | 0.00 | 0.00 | 90 | 1015.2 |
| 20260504080701 | 5 | 45 | 0.0 | 0.0 | 0.00 | 0.00 | 0.00 | 90 | 1015.2 |
| 20260504080201 | 5 | 45 | 0.0 | 0.0 | 0.00 | 0.00 | 0.00 | 90 | 1015.3 |
| 20260504070202 | 5 | 45 | 0.0 | 0.0 | 0.00 | 0.00 | 0.00 | 90 | 1015.3 |
| 20260504060200 | 3 | 45 | 0.0 | 0.0 | 0.00 | 0.00 | 0.00 | 91 | 1015.7 |
| 20260504050700 | 3 | 45 | 0.0 | 0.0 | 0.00 | 0.00 | 0.00 | 88 | 1015.8 |
| 20260504050201 | 3 | 45 | 0.0 | 0.0 | 0.00 | 0.00 | 0.00 | 88 | 1015.9 |
| 20260504045701 | 3 | 45 | 0.0 | 0.0 | 0.00 | 0.00 | 0.00 | 87 | 1015.9 |
| 20260504045200 | 3 | 45 | 0.0 | 0.0 | 0.00 | 0.00 | 0.00 | 87 | 1015.8 |
| 20260504044701 | 3 | 45 | 0.0 | 0.0 | 0.00 | 0.00 | 0.00 | 87 | 1015.8 |
| 20260504044201 | 3 | 45 | 0.0 | 0.0 | 0.00 | 0.00 | 0.00 | 87 | 1015.8 |
| 20260504043701 | 3 | 45 | 0.0 | 0.0 | 0.00 | 0.00 | 0.00 | 87 | 1015.7 |
| 20260504043200 | 3 | 45 | 0.0 | 0.0 | 0.00 | 0.00 | 0.00 | 87 | 1015.7 |
| 20260504042702 | 4 | 45 | 0.0 | 0.0 | 0.00 | 0.00 | 0.00 | 86 | 1015.6 |
| 20260504042201 | 4 | 45 | 0.0 | 0.0 | 0.00 | 0.00 | 0.00 | 86 | 1015.7 |
| 20260504041701 | 4 | 45 | 0.0 | 0.0 | 0.00 | 0.00 | 0.00 | 85 | 1015.7 |
| 20260504041202 | 4 | 45 | 0.0 | 0.0 | 0.00 | 0.00 | 0.00 | 85 | 1015.7 |
| 20260504040702 | 4 | 45 | 0.0 | 0.0 | 0.00 | 0.00 | 0.00 | 85 | 1015.6 |
| 20260504040201 | 4 | 45 | 0.0 | 0.0 | 0.00 | 0.00 | 0.00 | 84 | 1015.6 |
| 20260504035700 | 4 | 45 | 0.0 | 0.0 | 0.00 | 0.00 | 0.00 | 84 | 1015.6 |
| 20260504035200 | 5 | 45 | 0.0 | 0.0 | 0.00 | 0.00 | 0.00 | 84 | 1015.6 |
| 20260504034702 | 5 | 45 | 0.0 | 0.0 | 0.00 | 0.00 | 0.00 | 83 | 1015.6 |
| 20260504034201 | 5 | 45 | 0.0 | 0.0 | 0.00 | 0.00 | 0.00 | 83 | 1015.6 |
| 20260504033700 | 5 | 45 | 0.0 | 0.0 | 0.00 | 0.00 | 0.00 | 82 | 1015.6 |
| 20260504033202 | 5 | 45 | 0.0 | 0.0 | 0.00 | 0.00 | 0.00 | 82 | 1015.5 |
| 20260504032700 | 5 | 45 | 0.0 | 0.0 | 0.00 | 0.00 | 0.00 | 81 | 1015.5 |
| 20260504032200 | 5 | 45 | 0.0 | 0.0 | 0.00 | 0.00 | 0.00 | 81 | 1015.4 |
| 20260504031700 | 5 | 45 | 0.0 | 0.0 | 0.00 | 0.00 | 0.00 | 81 | 1015.4 |
| 20260504031200 | 5 | 45 | 0.0 | 0.0 | 0.00 | 0.00 | 0.00 | 81 | 1015.3 |
| 20260504030700 | 5 | 45 | 0.0 | 0.0 | 0.00 | 0.00 | 0.00 | 80 | 1015.2 |
| 20260504030202 | 5 | 45 | 0.0 | 0.0 | 0.00 | 0.00 | 0.00 | 79 | 1015.3 |
| 20260504025700 | 6 | 45 | 0.0 | 0.0 | 0.00 | 0.00 | 0.00 | 79 | 1015.2 |
| 20260504025202 | 6 | 45 | 0.0 | 0.0 | 0.00 | 0.00 | 0.00 | 78 | 1015.2 |
| 20260504024700 | 6 | 45 | 0.0 | 0.0 | 0.00 | 0.00 | 0.00 | 79 | 1015.1 |
| 20260504024202 | 6 | 45 | 0.0 | 0.0 | 0.00 | 0.00 | 0.00 | 78 | 1015.0 |
| 20260504023701 | 6 | 45 | 0.0 | 0.0 | 0.00 | 0.00 | 0.00 | 76 | 1015.0 |
| 20260504023200 | 6 | 45 | 0.0 | 0.0 | 0.00 | 0.00 | 0.00 | 75 | 1015.0 |
| 20260504022702 | 6 | 45 | 0.0 | 0.0 | 0.00 | 0.00 | 0.00 | 75 | 1015.0 |
| 20260504022200 | 6 | 45 | 0.0 | 0.0 | 0.00 | 0.00 | 0.00 | 75 | 1015.0 |
| 20260504021702 | 6 | 45 | 0.0 | 0.0 | 0.00 | 0.00 | 0.00 | 75 | 1015.0 |
| 20260504021202 | 7 | 45 | 0.0 | 0.0 | 0.00 | 0.00 | 0.00 | 74 | 1015.0 |
| 20260504020701 | 7 | 45 | 0.0 | 0.0 | 0.00 | 0.00 | 0.00 | 73 | 1015.0 |
| 20260504020201 | 7 | 45 | 0.0 | 0.0 | 0.00 | 0.00 | 0.00 | 73 | 1015.0 |
| 20260504015700 | 7 | 45 | 0.0 | 0.0 | 0.00 | 0.00 | 0.00 | 71 | 1014.9 |
| 20260504015200 | 7 | 45 | 0.0 | 0.0 | 0.00 | 0.00 | 0.00 | 71 | 1014.9 |
| 20260504014700 | 7 | 45 | 0.0 | 0.0 | 0.00 | 0.00 | 0.00 | 70 | 1014.8 |
| 20260504014201 | 7 | 45 | 0.0 | 0.0 | 0.00 | 0.00 | 0.00 | 70 | 1014.8 |
| 20260504013701 | 8 | 45 | 0.0 | 0.0 | 0.00 | 0.00 | 0.00 | 70 | 1014.8 |
| 20260504013201 | 8 | 45 | 0.0 | 0.0 | 0.00 | 0.00 | 0.00 | 68 | 1014.8 |
| 20260504012700 | 8 | 45 | 0.0 | 0.0 | 0.00 | 0.00 | 0.00 | 68 | 1014.8 |
| 20260504012200 | 8 | 45 | 0.0 | 0.0 | 0.00 | 0.00 | 0.00 | 67 | 1014.7 |
| 20260504011701 | 8 | 45 | 0.0 | 0.0 | 0.00 | 0.00 | 0.00 | 65 | 1014.7 |
| 20260504011200 | 9 | 45 | 0.0 | 0.0 | 0.00 | 0.00 | 0.00 | 63 | 1014.6 |
| 20260504010700 | 9 | 45 | 0.0 | 0.0 | 0.00 | 0.00 | 0.00 | 62 | 1014.6 |
| 20260504010202 | 9 | 45 | 0.0 | 0.0 | 0.00 | 0.00 | 0.00 | 62 | 1014.7 |
| 20260504005700 | 10 | 45 | 0.0 | 0.0 | 0.00 | 0.00 | 0.00 | 61 | 1014.6 |
| 20260504005200 | 10 | 45 | 0.0 | 0.0 | 0.00 | 0.00 | 0.00 | 60 | 1014.6 |
| 20260504004700 | 10 | 45 | 0.0 | 0.0 | 0.00 | 0.00 | 0.00 | 58 | 1014.6 |
| 20260504004203 | 11 | 45 | 0.0 | 0.0 | 0.00 | 0.00 | 0.00 | 55 | 1014.4 |
| 20260504003701 | 11 | 45 | 0.0 | 0.0 | 0.00 | 0.00 | 0.00 | 53 | 1014.4 |
| 20260504003202 | 11 | 45 | 0.0 | 0.0 | 0.00 | 0.00 | 0.00 | 53 | 1014.4 |
| 20260504002701 | 12 | 45 | 0.0 | 0.0 | 0.00 | 0.00 | 0.00 | 51 | 1014.3 |
| 20260504002200 | 12 | 45 | 0.0 | 0.0 | 0.00 | 0.00 | 0.00 | 51 | 1014.3 |
| 20260504001700 | 12 | 45 | 0.0 | 0.0 | 0.00 | 0.00 | 0.00 | 48 | 1014.2 |
| 20260504001200 | 13 | 45 | 0.0 | 0.0 | 0.00 | 0.00 | 0.00 | 47 | 1014.2 |
| 20260504000702 | 13 | 45 | 0.0 | 0.0 | 0.00 | 0.00 | 0.00 | 48 | 1014.2 |
| 20260504000204 | 14 | 45 | 0.0 | 1.6 | 0.00 | 0.00 | 0.00 | 46 | 1014.1 |
| 20260503235700 | 15 | 45 | 0.0 | 1.6 | 0.00 | 0.00 | 0.00 | 41 | 1014.0 |
| 20260503235203 | 15 | 45 | 0.0 | 1.6 | 0.00 | 0.00 | 0.00 | 38 | 1014.0 |
| 20260503234701 | 15 | 45 | 0.0 | 1.6 | 0.00 | 0.00 | 0.00 | 35 | 1013.9 |
| 20260503234201 | 15 | 67 | 0.0 | 3.2 | 0.00 | 0.00 | 0.00 | 33 | 1013.9 |
| 20260503233702 | 15 | 67 | 0.0 | 3.2 | 0.00 | 0.00 | 0.00 | 33 | 1013.9 |
| 20260503233200 | 16 | 45 | 0.0 | 3.2 | 0.00 | 0.00 | 0.00 | 33 | 1013.9 |
| 20260503232700 | 16 | 67 | 0.0 | 4.8 | 0.00 | 0.00 | 0.00 | 32 | 1013.8 |
| 20260503232200 | 16 | 67 | 0.0 | 6.4 | 0.00 | 0.00 | 0.00 | 32 | 1013.8 |
| 20260503231702 | 16 | 45 | 0.0 | 8.0 | 0.00 | 0.00 | 0.00 | 32 | 1013.8 |
| 20260503231201 | 16 | 90 | 1.6 | 8.0 | 0.00 | 0.00 | 0.00 | 32 | 1013.7 |
| 20260503230703 | 16 | 45 | 0.0 | 6.4 | 0.00 | 0.00 | 0.00 | 32 | 1013.6 |
| 20260503230201 | 16 | 45 | 1.6 | 6.4 | 0.00 | 0.00 | 0.00 | 33 | 1013.6 |
| 20260503225702 | 16 | 45 | 1.6 | 6.4 | 0.00 | 0.00 | 0.00 | 34 | 1013.6 |
| 20260503225202 | 16 | 45 | 0.0 | 4.8 | 0.00 | 0.00 | 0.00 | 32 | 1013.6 |
| 20260503224701 | 16 | 45 | 0.0 | 9.7 | 0.00 | 0.00 | 0.00 | 31 | 1013.6 |
| 20260503224200 | 16 | 67 | 1.6 | 9.7 | 0.00 | 0.00 | 0.00 | 32 | 1013.6 |
| 20260503223700 | 16 | 67 | 1.6 | 8.0 | 0.00 | 0.00 | 0.00 | 31 | 1013.7 |
| 20260503223201 | 16 | 45 | 0.0 | 9.7 | 0.00 | 0.00 | 0.00 | 31 | 1013.7 |
| 20260503222700 | 16 | 45 | 0.0 | 9.7 | 0.00 | 0.00 | 0.00 | 31 | 1013.8 |
| 20260503222200 | 16 | 45 | 3.2 | 8.0 | 0.00 | 0.00 | 0.00 | 31 | 1013.7 |
| 20260503221700 | 16 | 67 | 0.0 | 11.3 | 0.00 | 0.00 | 0.00 | 30 | 1013.8 |
| 20260503221200 | 16 | 67 | 3.2 | 11.3 | 0.00 | 0.00 | 0.00 | 31 | 1013.8 |
| 20260503220700 | 16 | 67 | 1.6 | 11.3 | 0.00 | 0.00 | 0.00 | 30 | 1013.9 |
| 20260503220202 | 16 | 67 | 3.2 | 11.3 | 0.00 | 0.00 | 0.00 | 31 | 1013.9 |
| 20260503215702 | 16 | 67 | 1.6 | 12.9 | 0.00 | 0.00 | 0.00 | 31 | 1013.9 |
| 20260503215200 | 16 | 45 | 3.2 | 16.1 | 0.00 | 0.00 | 0.00 | 31 | 1013.9 |
| 20260503214700 | 16 | 90 | 4.8 | 16.1 | 0.00 | 0.00 | 0.00 | 31 | 1013.9 |
| 20260503214200 | 16 | 67 | 3.2 | 12.9 | 0.00 | 0.00 | 0.00 | 31 | 1013.9 |
| 20260503213700 | 16 | 67 | 3.2 | 11.3 | 0.00 | 0.00 | 0.00 | 31 | 1013.9 |
| 20260503213201 | 16 | 67 | 3.2 | 11.3 | 0.00 | 0.00 | 0.00 | 31 | 1013.8 |
| 20260503212701 | 16 | 67 | 4.8 | 17.7 | 0.00 | 0.00 | 0.00 | 31 | 1014.0 |
| 20260503212201 | 16 | 90 | 6.4 | 17.7 | 0.00 | 0.00 | 0.00 | 30 | 1014.0 |
| 20260503211700 | 16 | 67 | 1.6 | 8.0 | 0.00 | 0.00 | 0.00 | 31 | 1013.9 |
| 20260503211201 | 16 | 45 | 3.2 | 9.7 | 0.00 | 0.00 | 0.00 | 32 | 1013.9 |
| 20260503210701 | 16 | 67 | 3.2 | 20.9 | 0.00 | 0.00 | 0.00 | 32 | 1013.9 |
| 20260503210200 | 16 | 45 | 3.2 | 20.9 | 0.00 | 0.00 | 0.00 | 32 | 1013.9 |
| 20260503205702 | 16 | 90 | 3.2 | 14.5 | 0.00 | 0.00 | 0.00 | 31 | 1014.1 |
| 20260503205200 | 16 | 67 | 8.0 | 12.9 | 0.00 | 0.00 | 0.00 | 33 | 1014.1 |
| 20260503204702 | 16 | 90 | 1.6 | 12.9 | 0.00 | 0.00 | 0.00 | 31 | 1014.1 |
| 20260503204201 | 16 | 45 | 3.2 | 12.9 | 0.00 | 0.00 | 0.00 | 32 | 1014.1 |
| 20260503203700 | 16 | 67 | 3.2 | 14.5 | 0.00 | 0.00 | 0.00 | 30 | 1014.2 |
| 20260503203201 | 16 | 90 | 3.2 | 17.7 | 0.00 | 0.00 | 0.00 | 30 | 1014.2 |
| 20260503202701 | 17 | 67 | 8.0 | 17.7 | 0.00 | 0.00 | 0.00 | 32 | 1014.1 |
| 20260503202201 | 16 | 337 | 3.2 | 9.7 | 0.00 | 0.00 | 0.00 | 32 | 1014.1 |
| 20260503201703 | 16 | 337 | 3.2 | 9.7 | 0.00 | 0.00 | 0.00 | 32 | 1014.2 |
| 20260503201200 | 17 | 45 | 3.2 | 12.9 | 0.00 | 0.00 | 0.00 | 31 | 1014.4 |
| 20260503200700 | 17 | 45 | 4.8 | 12.9 | 0.00 | 0.00 | 0.00 | 33 | 1014.6 |
| 20260503200202 | 17 | 45 | 3.2 | 11.3 | 0.00 | 0.00 | 0.00 | 33 | 1014.5 |
| 20260503195700 | 17 | 22 | 1.6 | 11.3 | 0.00 | 0.00 | 0.00 | 37 | 1014.7 |
| 20260503195200 | 16 | 22 | 1.6 | 11.3 | 0.00 | 0.00 | 0.00 | 34 | 1014.7 |
| 20260503194700 | 16 | 45 | 1.6 | 11.3 | 0.00 | 0.00 | 0.00 | 33 | 1014.7 |
| 20260503194202 | 16 | 90 | 3.2 | 17.7 | 0.00 | 0.00 | 0.00 | 32 | 1014.8 |
| 20260503193702 | 16 | 90 | 8.0 | 17.7 | 0.00 | 0.00 | 0.00 | 33 | 1015.1 |
| 20260503193201 | 16 | 22 | 3.2 | 11.3 | 0.00 | 0.00 | 0.00 | 36 | 1015.0 |
| 20260503192700 | 16 | 0 | 3.2 | 14.5 | 0.00 | 0.00 | 0.00 | 34 | 1014.9 |
| 20260503192200 | 16 | 67 | 3.2 | 14.5 | 0.00 | 0.00 | 0.00 | 34 | 1015.1 |
| 20260503191700 | 16 | 67 | 6.4 | 16.1 | 0.00 | 0.00 | 0.00 | 35 | 1015.2 |
| 20260503191204 | 16 | 67 | 6.4 | 16.1 | 0.00 | 0.00 | 0.00 | 35 | 1015.2 |
| 20260503190702 | 16 | 67 | 4.8 | 19.3 | 0.00 | 0.00 | 0.00 | 34 | 1015.2 |
| 20260503190202 | 16 | 22 | 6.4 | 19.3 | 0.00 | 0.00 | 0.00 | 38 | 1015.3 |
| 20260503185701 | 16 | 337 | 3.2 | 9.7 | 0.00 | 0.00 | 0.00 | 38 | 1015.3 |
| 20260503185200 | 16 | 67 | 3.2 | 14.5 | 0.00 | 0.00 | 0.00 | 35 | 1015.4 |
| 20260503184700 | 16 | 22 | 6.4 | 14.5 | 0.00 | 0.00 | 0.00 | 36 | 1015.5 |
| 20260503184201 | 16 | 90 | 4.8 | 9.7 | 0.00 | 0.00 | 0.00 | 38 | 1015.5 |
| 20260503183701 | 16 | 0 | 4.8 | 9.7 | 0.00 | 0.00 | 0.00 | 39 | 1015.6 |
| 20260503183200 | 16 | 0 | 3.2 | 9.7 | 0.00 | 0.00 | 0.00 | 40 | 1015.7 |
| 20260503182701 | 16 | 22 | 3.2 | 12.9 | 0.00 | 0.00 | 0.00 | 38 | 1015.7 |
| 20260503182202 | 16 | 45 | 4.8 | 12.9 | 0.00 | 0.00 | 0.00 | 37 | 1015.6 |
| 20260503181700 | 16 | 67 | 1.6 | 11.3 | 0.00 | 0.00 | 0.00 | 39 | 1015.7 |
| 20260503181201 | 15 | 45 | 3.2 | 12.9 | 0.00 | 0.00 | 0.00 | 39 | 1015.8 |
| 20260503180701 | 15 | 22 | 6.4 | 12.9 | 0.00 | 0.00 | 0.00 | 39 | 1015.9 |
| 20260503180200 | 15 | 45 | 1.6 | 12.9 | 0.00 | 0.00 | 0.00 | 43 | 1015.8 |
| 20260503175702 | 15 | 90 | 1.6 | 12.9 | 0.00 | 0.00 | 0.00 | 41 | 1015.8 |
| 20260503175200 | 15 | 292 | 3.2 | 12.9 | 0.00 | 0.00 | 0.00 | 39 | 1016.0 |
| 20260503174701 | 15 | 45 | 3.2 | 12.9 | 0.00 | 0.00 | 0.00 | 39 | 1016.1 |
| 20260503174200 | 15 | 90 | 4.8 | 20.9 | 0.00 | 0.00 | 0.00 | 38 | 1016.0 |
| 20260503173700 | 15 | 0 | 9.7 | 20.9 | 0.00 | 0.00 | 0.00 | 41 | 1016.1 |
| 20260503173200 | 15 | 315 | 4.8 | 9.7 | 0.00 | 0.00 | 0.00 | 43 | 1016.0 |
| 20260503172700 | 14 | 45 | 4.8 | 11.3 | 0.00 | 0.00 | 0.00 | 44 | 1016.2 |
| 20260503172201 | 14 | 337 | 4.8 | 11.3 | 0.00 | 0.00 | 0.00 | 39 | 1016.2 |
| 20260503171701 | 14 | 337 | 4.8 | 24.1 | 0.00 | 0.00 | 0.00 | 42 | 1016.1 |
| 20260503171200 | 14 | 45 | 4.8 | 24.1 | 0.00 | 0.00 | 0.00 | 43 | 1016.1 |
| 20260503170700 | 14 | 22 | 4.8 | 11.3 | 0.00 | 0.00 | 0.00 | 42 | 1016.3 |
| 20260503170201 | 14 | 22 | 3.2 | 12.9 | 0.00 | 0.00 | 0.00 | 44 | 1016.4 |
| 20260503160202 | 12 | 90 | 1.6 | 16.1 | 0.00 | 0.00 | 0.00 | 46 | 1017.0 |
| 20260503150700 | 10 | 67 | 3.2 | 14.5 | 0.00 | 0.00 | 0.00 | 49 | 1017.2 |
| 20260503150200 | 10 | 45 | 4.8 | 16.1 | 0.00 | 0.00 | 0.00 | 49 | 1017.3 |